Back to catalog

ONEWEB-0352

AliveCommunicationsPO
NORAD 49216·PAYLOAD·🇬🇧 United Kingdom

Launched Sep 14, 2021 from Baikonur Cosmodrome

Loading…

Next Passes (next 24 hours)

TLE

FreshSource: CelesTrak SupGP

Epoch: Sep 14, 2026, 09:24 UTC

1 49216C 21083AG  26257.39180556 -.00000930  00000+0 -25488-2 0  2574
2 49216  87.8912 302.4854 0001728  86.0485 323.4333 13.13466291    12

Track ONEWEB-0352 in real time with AllMySat

Download on the App Store